When you browse on this site, cookies collect data to enhance your experience and personalize the content and advertising you see.
Visit our Privacy Policy to learn more. By continuing to use the site, you agree to this use of cookies and data.

Stündliche Wetter Bor

Heute, 10 Juli, Freitag

Zeit Temperatur Niederschläge Wind Luftdruck Luftfeuchtigkeit
00:00 +12°C° 0 mm 2 m/S 750 mmHg 87%
01:00 +12°C° 0 mm 2 m/S 750 mmHg 89%
02:00 +12°C° 0 mm 2 m/S 750 mmHg 90%
03:00 +11°C° 0 mm 3 m/S 749 mmHg 88%
04:00 +12°C° 0 mm 3 m/S 749 mmHg 86%
05:00 +13°C° 0 mm 3 m/S 749 mmHg 84%
06:00 +13°C° 0 mm 4 m/S 748 mmHg 85%
07:00 +14°C° 0 mm 5 m/S 748 mmHg 85%
08:00 +15°C° 0 mm 5 m/S 748 mmHg 86%
09:00 +16°C° 0 mm 5 m/S 748 mmHg 84%
10:00 +19°C° 0 mm 6 m/S 747 mmHg 82%
11:00 +20°C° 0 mm 6 m/S 747 mmHg 80%
12:00 +21°C° 0.8 mm 6 m/S 747 mmHg 81%
13:00 +22°C° 0.8 mm 6 m/S 746 mmHg 82%
14:00 +23°C° 0 mm 6 m/S 746 mmHg 84%
15:00 +23°C° 1.2 mm 5 m/S 746 mmHg 85%
16:00 +23°C° 1.2 mm 5 m/S 746 mmHg 86%
17:00 +23°C° 1.2 mm 4 m/S 746 mmHg 87%
18:00 +22°C° 0.4 mm 4 m/S 747 mmHg 89%
19:00 +22°C° 0.4 mm 3 m/S 747 mmHg 91%
20:00 +21°C° 0.4 mm 3 m/S 747 mmHg 92%
21:00 +20°C° 0.2 mm 3 m/S 746 mmHg 93%
22:00 +20°C° 0.2 mm 3 m/S 746 mmHg 94%
23:00 +19°C° 0.2 mm 3 m/S 746 mmHg 94%

Morgen, 11 Juli, Samstag

Zeit Temperatur Niederschläge Wind Luftdruck Luftfeuchtigkeit
00:00 +19°C° 1.4 mm 4 m/S 746 mmHg 95%
01:00 +19°C° 1.4 mm 4 m/S 746 mmHg 95%
02:00 +19°C° 1.4 mm 5 m/S 746 mmHg 96%
03:00 +19°C° 0.4 mm 5 m/S 746 mmHg 96%
04:00 +19°C° 0.4 mm 5 m/S 746 mmHg 96%
05:00 +19°C° 0.4 mm 5 m/S 746 mmHg 95%
06:00 +19°C° 0 mm 5 m/S 747 mmHg 94%
07:00 +19°C° 0 mm 5 m/S 747 mmHg 92%
08:00 +19°C° 0 mm 4 m/S 748 mmHg 90%
09:00 +19°C° 0 mm 4 m/S 749 mmHg 84%
10:00 +20°C° 0 mm 4 m/S 749 mmHg 77%
11:00 +20°C° 0 mm 4 m/S 750 mmHg 71%
12:00 +21°C° 0 mm 4 m/S 750 mmHg 68%
13:00 +21°C° 0 mm 3 m/S 750 mmHg 65%
14:00 +21°C° 0 mm 3 m/S 750 mmHg 62%
15:00 +20°C° 0 mm 3 m/S 751 mmHg 66%
16:00 +19°C° 0 mm 3 m/S 751 mmHg 70%
17:00 +18°C° 0 mm 3 m/S 751 mmHg 74%
18:00 +17°C° 0 mm 3 m/S 751 mmHg 76%
19:00 +17°C° 0 mm 3 m/S 751 mmHg 78%
20:00 +16°C° 0 mm 3 m/S 751 mmHg 80%
21:00 +14°C° 0.1 mm 3 m/S 752 mmHg 81%
22:00 +13°C° 0.1 mm 3 m/S 752 mmHg 83%
23:00 +12°C° 0.1 mm 3 m/S 752 mmHg 84%

übermorgen, 12 Juli, Sonntag

Zeit Temperatur Niederschläge Wind Luftdruck Luftfeuchtigkeit
00:00 +13°C° 0.3 mm 2 m/S 752 mmHg 87%
01:00 +13°C° 0.3 mm 2 m/S 752 mmHg 91%
02:00 +12°C° 0.3 mm 2 m/S 752 mmHg 94%
03:00 +12°C° 0.7 mm 2 m/S 752 mmHg 95%
04:00 +12°C° 0.7 mm 2 m/S 752 mmHg 96%
05:00 +12°C° 0.7 mm 2 m/S 752 mmHg 97%
06:00 +13°C° 0.3 mm 2 m/S 752 mmHg 96%
07:00 +13°C° 0.3 mm 1 m/S 753 mmHg 94%
08:00 +13°C° 0.3 mm 1 m/S 753 mmHg 93%
09:00 +14°C° 0.2 mm 1 m/S 753 mmHg 90%
10:00 +14°C° 0.2 mm 1 m/S 753 mmHg 86%
11:00 +15°C° 0.2 mm 1 m/S 753 mmHg 83%
12:00 +15°C° 0.1 mm 2 m/S 753 mmHg 79%
13:00 +15°C° 0.1 mm 2 m/S 753 mmHg 75%
14:00 +16°C° 0.1 mm 2 m/S 753 mmHg 72%
15:00 +16°C° 0.1 mm 2 m/S 753 mmHg 73%
16:00 +16°C° 0.1 mm 2 m/S 752 mmHg 74%
17:00 +16°C° 0.1 mm 2 m/S 752 mmHg 75%
18:00 +16°C° 0.1 mm 2 m/S 752 mmHg 80%
19:00 +15°C° 0.1 mm 2 m/S 752 mmHg 85%
20:00 +14°C° 0.1 mm 2 m/S 752 mmHg 91%
21:00 +13°C° 0 mm 2 m/S 752 mmHg 92%
22:00 +12°C° 0 mm 2 m/S 752 mmHg 94%
23:00 +10°C° 0 mm 2 m/S 752 mmHg 95%

13 Juli, Montag

Zeit Temperatur Niederschläge Wind Luftdruck Luftfeuchtigkeit
00:00 +10°C° 0 mm 2 m/S 752 mmHg 95%
01:00 +9°C° 0 mm 2 m/S 752 mmHg 95%
02:00 +9°C° 0 mm 2 m/S 752 mmHg 95%
03:00 +8°C° 0 mm 2 m/S 752 mmHg 96%
04:00 +8°C° 0 mm 2 m/S 752 mmHg 96%
05:00 +8°C° 0 mm 2 m/S 751 mmHg 96%
06:00 +10°C° 0 mm 2 m/S 751 mmHg 92%
07:00 +11°C° 0 mm 3 m/S 751 mmHg 88%
08:00 +13°C° 0 mm 3 m/S 751 mmHg 84%
09:00 +14°C° 0.1 mm 3 m/S 751 mmHg 77%
10:00 +17°C° 0.1 mm 3 m/S 751 mmHg 71%
11:00 +18°C° 0.1 mm 4 m/S 751 mmHg 64%
12:00 +19°C° 0.1 mm 3 m/S 751 mmHg 62%
13:00 +19°C° 0.1 mm 3 m/S 750 mmHg 60%
14:00 +20°C° 0.1 mm 3 m/S 750 mmHg 58%
15:00 +20°C° 0 mm 3 m/S 750 mmHg 59%
16:00 +20°C° 0 mm 3 m/S 750 mmHg 60%
17:00 +20°C° 0 mm 3 m/S 749 mmHg 61%
18:00 +19°C° 0 mm 3 m/S 749 mmHg 70%
19:00 +17°C° 0 mm 2 m/S 749 mmHg 78%
20:00 +16°C° 0 mm 2 m/S 749 mmHg 87%
21:00 +15°C° 0 mm 2 m/S 749 mmHg 89%
22:00 +14°C° 0 mm 2 m/S 749 mmHg 92%
23:00 +13°C° 0 mm 2 m/S 749 mmHg 95%

14 Juli, Dienstag

Zeit Temperatur Niederschläge Wind Luftdruck Luftfeuchtigkeit
00:00 +12°C° 0 mm 2 m/S 750 mmHg 95%
01:00 +12°C° 0 mm 2 m/S 750 mmHg 96%
02:00 +12°C° 0 mm 2 m/S 750 mmHg 96%
03:00 +10°C° 0 mm 2 m/S 750 mmHg 96%
04:00 +10°C° 0 mm 2 m/S 750 mmHg 96%
05:00 +10°C° 0 mm 2 m/S 750 mmHg 96%
06:00 +13°C° 0 mm 2 m/S 750 mmHg 90%
07:00 +14°C° 0 mm 2 m/S 750 mmHg 85%
08:00 +16°C° 0 mm 2 m/S 750 mmHg 79%
09:00 +18°C° 0 mm 2 m/S 750 mmHg 73%
10:00 +19°C° 0 mm 2 m/S 750 mmHg 66%
11:00 +20°C° 0 mm 3 m/S 751 mmHg 59%
12:00 +21°C° 0 mm 3 m/S 750 mmHg 57%
13:00 +21°C° 0 mm 3 m/S 750 mmHg 56%
14:00 +22°C° 0 mm 3 m/S 750 mmHg 54%
15:00 +22°C° 0 mm 3 m/S 750 mmHg 56%
16:00 +21°C° 0 mm 3 m/S 750 mmHg 58%
17:00 +21°C° 0 mm 3 m/S 750 mmHg 61%
18:00 +20°C° 0 mm 2 m/S 750 mmHg 67%
19:00 +18°C° 0 mm 2 m/S 750 mmHg 74%
20:00 +18°C° 0 mm 1 m/S 750 mmHg 80%
21:00 +15°C° 0 mm 1 m/S 750 mmHg 82%
22:00 +14°C° 0 mm 1 m/S 750 mmHg 84%
23:00 +13°C° 0 mm 1 m/S 750 mmHg 86%

15 Juli, Mittwoch

Zeit Temperatur Niederschläge Wind Luftdruck Luftfeuchtigkeit
00:00 +12°C° 0 mm 1 m/S 750 mmHg 87%
01:00 +11°C° 0 mm 0 m/S 750 mmHg 87%
02:00 +11°C° 0 mm 0 m/S 751 mmHg 87%
03:00 +11°C° 0 mm 0 m/S 751 mmHg 87%
04:00 +11°C° 0 mm 0 m/S 751 mmHg 87%
05:00 +11°C° 0 mm 0 m/S 751 mmHg 86%
06:00 +13°C° 0 mm 0 m/S 751 mmHg 80%
07:00 +15°C° 0 mm 0 m/S 751 mmHg 75%
08:00 +17°C° 0 mm 0 m/S 751 mmHg 69%
09:00 +19°C° 0 mm 0 m/S 751 mmHg 64%
10:00 +20°C° 0 mm 0 m/S 751 mmHg 59%
11:00 +22°C° 0 mm 0 m/S 750 mmHg 54%
12:00 +24°C° 0 mm 1 m/S 750 mmHg 53%
13:00 +24°C° 0 mm 1 m/S 750 mmHg 53%
14:00 +24°C° 0 mm 1 m/S 750 mmHg 52%
15:00 +24°C° 0.1 mm 1 m/S 750 mmHg 55%
16:00 +23°C° 0.1 mm 1 m/S 749 mmHg 59%
17:00 +23°C° 0.1 mm 1 m/S 749 mmHg 62%
18:00 +22°C° 0 mm 1 m/S 749 mmHg 67%
19:00 +20°C° 0 mm 1 m/S 749 mmHg 72%
20:00 +19°C° 0 mm 1 m/S 749 mmHg 77%
21:00 +18°C° 0 mm 1 m/S 749 mmHg 79%
22:00 +16°C° 0 mm 2 m/S 749 mmHg 80%
23:00 +15°C° 0 mm 2 m/S 749 mmHg 82%
Mehr zeigen